TimeCST,TemperatureF,Dew PointF,Humidity,Sea Level PressureIn,VisibilityMPH,Wind Direction,Wind SpeedMPH,Gust SpeedMPH,PrecipitationIn,Events,Conditions,WindDirDegrees,DateUTC
12:15 AM,41.2,40.5,97,30.06,2.5,South,3.5,-,N/A,,Overcast,180,2012-11-06 06:15:00
12:35 AM,41.2,40.5,97,30.03,2.5,SSE,6.9,-,N/A,,Overcast,160,2012-11-06 06:35:00
12:55 AM,41.0,40.1,97,30.01,3.0,South,8.1,-,N/A,,Mostly Cloudy,170,2012-11-06 06:55:00
1:15 AM,41.0,40.1,97,30.02,3.0,South,8.1,-,N/A,,Scattered Clouds,180,2012-11-06 07:15:00
1:35 AM,40.3,39.4,97,30.03,4.0,South,4.6,-,N/A,,Scattered Clouds,170,2012-11-06 07:35:00
1:55 AM,40.6,39.7,97,30.03,4.0,South,5.8,-,N/A,,Overcast,190,2012-11-06 07:55:00
2:15 AM,40.6,39.6,96,30.02,4.0,South,9.2,-,N/A,,Overcast,190,2012-11-06 08:15:00
2:35 AM,40.6,39.4,95,30.01,4.0,South,9.2,-,N/A,,Overcast,190,2012-11-06 08:35:00
2:55 AM,40.5,39.4,96,30.00,4.0,SSW,10.4,17.3,N/A,,Overcast,210,2012-11-06 08:55:00
3:15 AM,40.3,39.2,96,29.99,4.0,South,12.7,-,N/A,,Mostly Cloudy,190,2012-11-06 09:15:00
3:35 AM,40.5,39.2,95,29.99,4.0,SSW,11.5,-,N/A,,Scattered Clouds,200,2012-11-06 09:35:00
3:55 AM,40.5,39.2,95,29.98,5.0,SSW,10.4,-,N/A,,Mostly Cloudy,200,2012-11-06 09:55:00
4:15 AM,40.5,38.7,93,29.96,5.0,SSW,12.7,-,N/A,,Overcast,200,2012-11-06 10:15:00
4:35 AM,40.5,38.3,92,29.95,7.0,South,12.7,18.4,N/A,,Mostly Cloudy,190,2012-11-06 10:35:00
4:55 AM,40.5,38.5,93,29.95,7.0,South,15.0,-,N/A,,Overcast,190,2012-11-06 10:55:00
5:15 AM,40.3,38.3,93,29.95,7.0,SSW,10.4,-,N/A,,Scattered Clouds,210,2012-11-06 11:15:00
5:35 AM,39.4,37.6,93,29.96,5.0,SW,10.4,-,N/A,,Clear,220,2012-11-06 11:35:00
5:55 AM,40.1,38.3,93,29.96,7.0,SW,8.1,-,N/A,,Mostly Cloudy,230,2012-11-06 11:55:00
6:15 AM,39.6,37.4,92,29.95,7.0,SW,15.0,-,N/A,,Scattered Clouds,230,2012-11-06 12:15:00
6:35 AM,39.2,36.9,91,29.96,7.0,WSW,9.2,-,N/A,,Clear,250,2012-11-06 12:35:00
6:55 AM,39.4,36.7,90,29.97,7.0,West,10.4,-,N/A,,Scattered Clouds,260,2012-11-06 12:55:00
7:15 AM,40.6,37.8,89,29.96,10.0,West,12.7,-,N/A,,Overcast,270,2012-11-06 13:15:00
7:35 AM,40.5,37.6,89,29.97,10.0,West,10.4,-,N/A,,Scattered Clouds,280,2012-11-06 13:35:00
7:55 AM,42.8,39.2,87,29.99,10.0,WNW,12.7,-,N/A,,Clear,300,2012-11-06 13:55:00
8:15 AM,43.5,39.6,86,30.00,10.0,WNW,15.0,20.7,N/A,,Clear,300,2012-11-06 14:15:00
8:35 AM,43.9,40.1,87,30.01,10.0,NW,15.0,-,N/A,,Clear,310,2012-11-06 14:35:00
8:55 AM,45.7,40.5,82,30.01,10.0,NW,19.6,23.0,N/A,,Clear,320,2012-11-06 14:55:00
9:15 AM,47.3,39.2,73,30.01,10.0,NW,23.0,28.8,N/A,,Clear,320,2012-11-06 15:15:00
9:35 AM,48.2,37.8,67,30.02,10.0,NNW,19.6,24.2,N/A,,Clear,330,2012-11-06 15:35:00
9:55 AM,49.3,37.0,63,30.02,10.0,NW,18.4,23.0,N/A,,Clear,320,2012-11-06 15:55:00
10:15 AM,50.2,37.0,61,30.02,10.0,NW,18.4,24.2,N/A,,Clear,310,2012-11-06 16:15:00
10:35 AM,51.1,35.4,55,30.02,10.0,NW,20.7,25.3,N/A,,Clear,320,2012-11-06 16:35:00
10:55 AM,51.4,34.9,53,30.02,10.0,NW,21.9,27.6,N/A,,Clear,310,2012-11-06 16:55:00
11:15 AM,52.5,34.0,49,30.02,10.0,NW,18.4,31.1,N/A,,Clear,320,2012-11-06 17:15:00
11:35 AM,53.6,33.8,47,30.01,10.0,NW,20.7,25.3,N/A,,Clear,310,2012-11-06 17:35:00
11:55 AM,54.0,32.2,44,30.01,10.0,NW,23.0,26.5,N/A,,Clear,320,2012-11-06 17:55:00
12:15 PM,54.7,32.0,42,30.00,10.0,NW,23.0,31.1,N/A,,Clear,310,2012-11-06 18:15:00
12:35 PM,55.4,31.5,40,29.99,10.0,NW,20.7,27.6,N/A,,Clear,310,2012-11-06 18:35:00
12:55 PM,56.3,31.5,39,29.99,10.0,NW,17.3,31.1,N/A,,Clear,310,2012-11-06 18:55:00
1:15 PM,56.3,29.7,36,29.98,10.0,NW,21.9,28.8,N/A,,Clear,320,2012-11-06 19:15:00
1:35 PM,57.4,30.0,35,29.98,10.0,NW,26.5,31.1,N/A,,Clear,320,2012-11-06 19:35:00
1:55 PM,57.0,29.3,35,29.98,10.0,NW,25.3,33.4,N/A,,Clear,310,2012-11-06 19:55:00
2:15 PM,57.2,28.8,34,29.98,10.0,WNW,24.2,36.8,N/A,,Clear,300,2012-11-06 20:15:00
2:35 PM,57.2,29.1,34,29.98,10.0,NW,26.5,34.5,N/A,,Clear,320,2012-11-06 20:35:00
2:55 PM,57.0,29.3,35,29.98,10.0,NW,25.3,31.1,N/A,,Clear,310,2012-11-06 20:55:00
3:15 PM,56.5,29.7,36,29.99,10.0,NW,23.0,34.5,N/A,,Clear,320,2012-11-06 21:15:00
3:35 PM,56.5,30.4,37,29.99,10.0,NW,21.9,-,N/A,,Clear,320,2012-11-06 21:35:00
3:55 PM,55.8,30.6,38,29.99,10.0,NNW,23.0,28.8,N/A,,Clear,330,2012-11-06 21:55:00
4:15 PM,55.4,30.7,39,30.00,10.0,NNW,23.0,31.1,N/A,,Clear,330,2012-11-06 22:15:00
4:35 PM,54.5,30.6,40,30.01,10.0,NNW,16.1,25.3,N/A,,Clear,330,2012-11-06 22:35:00
4:55 PM,53.4,30.9,42,30.01,10.0,NNW,15.0,26.5,N/A,,Clear,330,2012-11-06 22:55:00
5:35 PM,50.4,32.0,49,30.02,10.0,NW,11.5,-,N/A,,Clear,310,2012-11-06 23:35:00
5:55 PM,48.2,32.0,54,30.03,10.0,NW,10.4,-,N/A,,Clear,310,2012-11-06 23:55:00
6:15 PM,48.0,32.0,54,30.04,10.0,NW,11.5,-,N/A,,Clear,310,2012-11-07 00:15:00
6:35 PM,48.4,31.6,52,30.04,10.0,NW,10.4,-,N/A,,Clear,310,2012-11-07 00:35:00
6:55 PM,47.3,31.6,55,30.05,10.0,NW,9.2,-,N/A,,Clear,310,2012-11-07 00:55:00
7:15 PM,46.6,31.8,56,30.05,10.0,NW,9.2,-,N/A,,Clear,310,2012-11-07 01:15:00
7:35 PM,45.9,31.6,58,30.05,10.0,WNW,8.1,-,N/A,,Clear,300,2012-11-07 01:35:00
7:55 PM,45.1,31.6,59,30.05,10.0,NW,8.1,-,N/A,,Clear,310,2012-11-07 01:55:00
8:15 PM,44.1,31.5,61,30.06,10.0,WNW,5.8,-,N/A,,Clear,300,2012-11-07 02:15:00
8:35 PM,43.0,31.3,63,30.06,10.0,WNW,5.8,-,N/A,,Clear,300,2012-11-07 02:35:00
8:55 PM,41.9,30.7,65,30.06,10.0,WNW,6.9,-,N/A,,Clear,300,2012-11-07 02:55:00
9:15 PM,40.8,30.7,67,30.07,10.0,NW,6.9,-,N/A,,Clear,310,2012-11-07 03:15:00
9:35 PM,40.1,30.6,69,30.07,10.0,West,6.9,-,N/A,,Clear,280,2012-11-07 03:35:00
9:55 PM,39.4,30.2,70,30.06,10.0,WNW,9.2,-,N/A,,Clear,290,2012-11-07 03:55:00
10:15 PM,39.7,30.6,70,30.06,10.0,WNW,9.2,-,N/A,,Clear,290,2012-11-07 04:15:00
10:35 PM,39.6,30.2,69,30.07,10.0,WNW,8.1,-,N/A,,Clear,290,2012-11-07 04:35:00
10:55 PM,39.4,30.2,70,30.07,10.0,West,6.9,-,N/A,,Clear,280,2012-11-07 04:55:00
11:15 PM,39.6,30.0,69,30.07,10.0,WNW,6.9,-,N/A,,Clear,290,2012-11-07 05:15:00
11:35 PM,38.3,30.0,72,30.07,10.0,West,8.1,-,N/A,,Clear,280,2012-11-07 05:35:00
11:55 PM,38.1,29.8,72,30.08,10.0,West,9.2,-,N/A,,Clear,280,2012-11-07 05:55:00